#timestamp,LO_Frequency,Hit,StdDev 
1512802815.3,286047002.2,N
1512802835.1,286047002.1,N
1512802855.9,286047001.6,N
1512802875.7,286047004.4,N
1512802895.5,286047003.8,N
1512802915.4,286047003.1,N
1512802935.2,286047006.0,Y
1512802955.1,286047000.2,P
1512802956.0,286047000.2,N
1512802975.8,286047000.2,N
1512802995.6,286047000.4,N
1512803015.5,286046998.7,N
1512803035.3,286047000.2,N
1512803055.2,286047002.8,Y
1512803075.9,286047000.1,P
1512803095.7,286046999.9,N
1512803115.6,286047000.4,N
1512803135.4,286047000.0,N
1512803155.2,286047000.7,Y
1512803175.1,286046999.7,P
1512803176.0,286046999.7,N
1512803195.8,286047002.4,P
1512803215.7,286047000.7,N
1512803235.5,286046999.9,N
1512803255.3,286047002.7,N
1512803275.2,286047002.6,N
1512803295.0,286047004.1,Y
1512803295.9,286047004.1,P
1512803315.8,286047002.3,N
1512803335.6,286047000.3,N
1512803355.4,286047002.6,N
1512803375.3,286047002.8,N
1512803395.1,286047002.8,N
1512803415.9,286047001.8,N
1512803435.7,286047001.5,N
1512803455.5,286047001.8,N
1512803475.4,286047003.4,Y
1512803495.2,286046999.7,P
1512803515.1,286047000.8,N
1512803516.0,286047000.8,N
1512803535.8,286046998.2,N
1512803555.6,286046998.5,N
1512803575.5,286047000.5,N
1512803595.3,286046998.2,N
1512803615.1,286046999.3,N
1512803635.9,286046996.5,N
1512803655.7,286046997.2,N
1512803675.6,286046998.8,N
1512803695.4,286046998.8,N
1512803715.2,286047002.7,N
1512803735.1,286046998.6,N
1512803736.0,286046998.6,N
1512803755.8,286046998.1,N
1512803775.7,286046999.2,N
1512803795.5,286046997.1,N
1512803815.3,286046999.3,N
1512803835.2,286046997.4,N
1512803855.0,286046996.5,N
1512803855.9,286046996.5,N
1512803875.8,286046996.8,N
1512803895.6,286046999.6,N
1512803915.4,286046999.3,N
1512803935.3,286046997.9,N
1512803955.1,286046996.9,N
1512803975.8,286046999.1,N
1512803995.7,286046996.6,N
1512804015.5,286046997.8,N
1512804035.4,286046995.4,Y
1512804055.2,286046996.6,P
1512804075.0,286046998.0,N
1512804075.9,286046998.0,N
1512804095.8,286046996.4,Y
1512804115.6,286046997.2,P
1512804135.5,286046996.7,P
1512804155.3,286046999.3,N
1512804175.1,286046999.2,N
1512804195.9,286046999.6,N
1512804215.7,286046998.5,N
1512804235.5,286046996.8,Y
1512804255.4,286047002.8,P
1512804275.2,286047000.7,N
1512804295.1,286047000.2,N
1512804296.0,286047000.2,N
1512804315.8,286047000.2,N
1512804335.6,286046998.4,N
1512804355.5,286046998.6,N
1512804375.3,286047000.7,N
1512804395.2,286046998.4,N
1512804415.9,286046998.3,N
1512804435.7,286046999.8,N
1512804455.6,286047001.6,N
1512804475.4,286047001.3,N
1512804495.2,286047001.4,N
1512804515.1,286047002.0,N
1512804516.0,286047002.0,N
1512804535.8,286047001.7,N
1512804555.7,286047004.4,Y
1512804575.5,286047001.8,P
1512804595.3,286047003.2,P
1512804615.2,286047001.8,N
1512804635.0,286047004.3,Y
1512804635.9,286047004.3,P
1512804655.8,286047000.5,N
1512804675.6,286047000.7,N
1512804695.4,286046998.1,N
1512804715.3,286047000.6,N
1512804735.1,286046998.5,N
1512804755.9,286046998.1,N
1512804775.7,286047000.4,N
1512804795.5,286047000.4,N
1512804815.4,286047000.4,N
1512804835.2,286046998.5,N
1512804855.1,286046997.0,N
1512804856.0,286046997.0,N
1512804875.8,286046997.0,N
1512804895.6,286046998.9,N
1512804915.5,286046998.9,N
1512804935.3,286046998.5,N
1512804955.1,286047000.8,N
1512804975.9,286047001.1,N
1512804995.7,286047000.7,N
1512805015.6,286046998.5,N
1512805035.4,286046998.1,N
1512805055.2,286047000.6,N
1512805075.1,286046998.4,N
1512805076.0,286046998.4,N
1512805095.8,286046999.1,N
1512805115.7,286046998.7,N
1512805135.5,286046998.5,N
1512805155.3,286046999.4,N
1512805175.2,286046998.1,N
1512805195.0,286046999.3,N
1512805195.9,286046999.3,N
1512805215.8,286046998.4,N
1512805235.6,286047000.7,N
1512805255.4,286046998.1,N
1512805275.3,286046998.9,N
1512805295.1,286046998.8,N
1512805315.9,286046997.8,N
1512805335.7,286046998.0,N
1512805355.5,286046995.7,Y
1512805375.4,286046995.3,P
1512805395.2,286046996.9,N
1512805415.0,286046994.9,P
1512805416.0,286046994.9,Y
1512805435.8,286047000.3,P
1512805455.6,286047001.1,N
1512805475.5,286047000.3,N
1512805495.3,286047000.9,N
1512805515.1,286046998.4,N
1512805535.9,286046998.7,N
1512805555.7,286046996.9,N
1512805575.6,286046996.6,N
1512805595.4,286046997.6,N
1512805615.2,286046995.7,N
1512805635.1,286046996.2,N
1512805636.0,286046996.2,N
1512805655.8,286046995.7,N
1512805675.7,286046996.1,N
1512805695.5,286046995.2,N
1512805715.3,286046995.1,N
1512805735.2,286046993.3,Y
1512805755.0,286046999.1,P
1512805755.9,286046999.1,N
1512805775.8,286046999.5,N
1512805795.6,286046996.6,Y
1512805815.4,286046997.2,P
1512805835.3,286046997.8,N
1512805855.1,286046997.3,P
1512805875.9,286046997.0,Y
1512805895.7,286046998.4,P
1512805915.5,286047000.6,N
1512805935.4,286046998.5,N
1512805955.2,286046998.5,N
1512805975.0,286046999.5,N
1512805975.9,286046999.5,N
1512805995.8,286046996.5,Y
1512806015.6,286046997.5,P
1512806035.5,286046996.0,P
1512806055.3,286046996.3,P
1512806075.1,286046997.3,N
1512806095.9,286046997.9,N
1512806115.7,286046998.0,N
1512806135.6,286046993.4,Y
1512806155.4,286046997.5,P
1512806175.2,286046995.7,P
1512806195.1,286046996.3,P
1512806196.0,286046996.3,Y
1512806215.8,286046999.5,P
1512806235.7,286046994.9,P
1512806255.5,286046998.0,N
1512806275.3,286046993.4,Y
1512806295.2,286046998.0,P
1512806315.0,286046994.9,P
1512806315.9,286046994.9,P
1512806335.8,286046995.5,Y
1512806355.6,286046999.6,P
1512806375.4,286046999.5,N
1512806395.3,286046998.9,N
